Starlink 30232

operational
NORAD ID: 57303 Int'l Des: 2023-096 Owner: SPXS Country: US Constellation: starlink
LEOCIRCULAR

关于 Starlink 30232

正在加载描述...

实时位置

正在加载3D地球...

即将过境

高度历史

Altitude vs Time

uPlot chart will show altitude changes over time

两行轨道根数

1 57303U 23096P 25260.95869941 .00054224 00000-0 24660-2 0 9991
2 57303 42.9962 67.3626 0019966 285.8544 74.0104 15.19784271121666
Epoch: Sep 17, 2025 • Age: 12 hours

当前状态

高度 500.3 km
速度 7.62 km/s
星下点 -18.51°S, 126.71°W
发射日期 Jul 10, 2023
运行时间 2.1 years
类型 internet

技术详情

分类 Payload
质量 730.00 kg
干质量 700.00 kg
总质量 730.00 kg
长度 0.30 m
直径 4.10 m
跨度 29.00 m
形状 Box + pan
制造商 SPXS
平台类型 Starlink V2M
阶段状态 In Orbit
所有者/国家 SPXS/US

大型星座

Loading constellations...